Year,Month,Day,Hour,Minute,Value (Times are PST for temperature in C)
2014,07,14,00,00,21.40
2014,07,14,00,01,21.40
2014,07,14,00,02,21.50
2014,07,14,00,03,21.60
2014,07,14,00,04,21.60
2014,07,14,00,05,21.60
2014,07,14,00,06,21.70
2014,07,14,00,07,21.70
2014,07,14,00,08,21.70
2014,07,14,00,09,21.80
2014,07,14,00,10,21.90
2014,07,14,00,11,21.90
2014,07,14,00,12,22.00
2014,07,14,00,13,22.00
2014,07,14,00,14,22.10
2014,07,14,00,15,22.10
2014,07,14,00,16,22.20
2014,07,14,00,17,22.30
2014,07,14,00,18,22.30
2014,07,14,00,19,22.40
2014,07,14,00,20,22.50
2014,07,14,00,21,22.60
2014,07,14,00,22,22.60
2014,07,14,00,23,22.70
2014,07,14,00,24,22.70
2014,07,14,00,25,22.80
2014,07,14,00,26,22.80
2014,07,14,00,27,22.80
2014,07,14,00,28,22.80
2014,07,14,00,29,22.90
2014,07,14,00,30,22.90
2014,07,14,00,31,22.90
2014,07,14,00,32,22.90
2014,07,14,00,33,23.10
2014,07,14,00,34,23.10
2014,07,14,00,35,23.10
2014,07,14,00,36,23.10
2014,07,14,00,37,23.20
2014,07,14,00,38,23.20
2014,07,14,00,39,23.30
2014,07,14,00,40,23.30
2014,07,14,00,41,23.30
2014,07,14,00,42,23.30
2014,07,14,00,43,23.40
2014,07,14,00,44,23.40
2014,07,14,00,45,23.60
2014,07,14,00,46,23.60
2014,07,14,00,47,23.60
2014,07,14,00,48,23.60
2014,07,14,00,49,23.60
2014,07,14,00,50,23.70
2014,07,14,00,51,23.70
2014,07,14,00,52,23.70
2014,07,14,00,53,23.70
2014,07,14,00,54,23.80
2014,07,14,00,55,23.90
2014,07,14,00,56,23.90
2014,07,14,00,57,23.90
2014,07,14,00,58,23.90
2014,07,14,00,59,24.00
2014,07,14,01,00,23.80
2014,07,14,01,01,23.50
2014,07,14,01,02,23.10
2014,07,14,01,03,22.80
2014,07,14,01,04,22.50
2014,07,14,01,05,22.20
2014,07,14,01,06,21.90
2014,07,14,01,07,21.70
2014,07,14,01,08,21.40
2014,07,14,01,09,21.10
2014,07,14,01,10,20.90
2014,07,14,01,11,20.70
2014,07,14,01,12,20.50
2014,07,14,01,13,20.40
2014,07,14,01,14,20.20
2014,07,14,01,15,20.20
2014,07,14,01,16,20.10
2014,07,14,01,17,20.10
2014,07,14,01,18,20.00
2014,07,14,01,19,19.90
2014,07,14,01,20,19.90
2014,07,14,01,21,19.90
2014,07,14,01,22,19.80
2014,07,14,01,23,19.70
2014,07,14,01,24,19.70
2014,07,14,01,25,19.60
2014,07,14,01,26,19.50
2014,07,14,01,27,19.50
2014,07,14,01,28,19.40
2014,07,14,01,29,19.40
2014,07,14,01,30,19.40
2014,07,14,01,31,19.40
2014,07,14,01,32,19.30
2014,07,14,01,33,19.30
2014,07,14,01,34,19.40
2014,07,14,01,35,19.50
2014,07,14,01,36,19.70
2014,07,14,01,37,19.90
2014,07,14,01,38,20.20
2014,07,14,01,39,20.50
2014,07,14,01,40,20.80
2014,07,14,01,41,21.20
2014,07,14,01,42,21.60
2014,07,14,01,43,21.90
2014,07,14,01,44,22.20
2014,07,14,01,45,22.40
2014,07,14,01,46,22.70
2014,07,14,01,47,22.90
2014,07,14,01,48,23.10
2014,07,14,01,49,23.40
2014,07,14,01,50,23.60
2014,07,14,01,51,23.70
2014,07,14,01,52,23.90
2014,07,14,01,53,24.00
2014,07,14,01,54,24.10
2014,07,14,01,55,24.20
2014,07,14,01,56,24.40
2014,07,14,01,57,24.40
2014,07,14,01,58,24.50
2014,07,14,01,59,24.50
2014,07,14,02,00,24.50
2014,07,14,02,01,24.60
2014,07,14,02,02,24.60
2014,07,14,02,03,24.70
2014,07,14,02,04,24.70
2014,07,14,02,05,24.70
2014,07,14,02,06,24.70
2014,07,14,02,07,24.60
2014,07,14,02,08,24.60
2014,07,14,02,09,24.40
2014,07,14,02,10,24.30
2014,07,14,02,11,24.10
2014,07,14,02,12,23.90
2014,07,14,02,13,23.70
2014,07,14,02,14,23.40
2014,07,14,02,15,23.10
2014,07,14,02,16,22.80
2014,07,14,02,17,22.50
2014,07,14,02,18,22.20
2014,07,14,02,19,21.90
2014,07,14,02,20,21.60
2014,07,14,02,21,21.30
2014,07,14,02,22,21.10
2014,07,14,02,23,20.90
2014,07,14,02,24,20.70
2014,07,14,02,25,20.50
2014,07,14,02,26,20.30
2014,07,14,02,27,20.10
2014,07,14,02,28,20.00
2014,07,14,02,29,19.90
2014,07,14,02,30,19.70
2014,07,14,02,31,19.60
2014,07,14,02,32,19.50
2014,07,14,02,33,19.50
2014,07,14,02,34,19.40
2014,07,14,02,35,19.30
2014,07,14,02,36,19.30
2014,07,14,02,37,19.20
2014,07,14,02,38,19.10
2014,07,14,02,39,19.10
2014,07,14,02,40,19.10
2014,07,14,02,41,19.10
2014,07,14,02,42,19.10
2014,07,14,02,43,19.10
2014,07,14,02,44,19.10
2014,07,14,02,45,19.10
2014,07,14,02,46,18.90
2014,07,14,02,47,18.90
2014,07,14,02,48,18.90
2014,07,14,02,49,18.90
2014,07,14,02,50,18.90
2014,07,14,02,51,18.90
2014,07,14,02,52,18.90
2014,07,14,02,53,18.90
2014,07,14,02,54,18.90
2014,07,14,02,55,18.80
2014,07,14,02,56,18.80
2014,07,14,02,57,18.80
2014,07,14,02,58,18.80
2014,07,14,02,59,18.80
2014,07,14,03,00,18.80
2014,07,14,03,01,18.70
2014,07,14,03,02,18.70
2014,07,14,03,03,18.70
2014,07,14,03,04,18.60
2014,07,14,03,05,18.60
2014,07,14,03,06,18.60
2014,07,14,03,07,18.50
2014,07,14,03,08,18.50
2014,07,14,03,09,18.40
2014,07,14,03,10,18.40
2014,07,14,03,11,18.30
2014,07,14,03,12,18.30
2014,07,14,03,13,18.20
2014,07,14,03,14,18.20
2014,07,14,03,15,18.20
2014,07,14,03,16,18.20
2014,07,14,03,17,18.10
2014,07,14,03,18,18.10
2014,07,14,03,19,18.10
2014,07,14,03,20,18.10
2014,07,14,03,21,18.10
2014,07,14,03,22,18.10
2014,07,14,03,23,18.00
2014,07,14,03,24,17.90
2014,07,14,03,25,17.90
2014,07,14,03,26,17.90
2014,07,14,03,27,17.90
2014,07,14,03,28,17.90
2014,07,14,03,29,17.90
2014,07,14,03,30,17.90
2014,07,14,03,31,17.90
2014,07,14,03,32,17.90
2014,07,14,03,33,17.90
2014,07,14,03,34,17.80
2014,07,14,03,35,17.80
2014,07,14,03,36,17.80
2014,07,14,03,37,17.80
2014,07,14,03,38,17.80
2014,07,14,03,39,17.80
2014,07,14,03,40,17.80
2014,07,14,03,41,17.80
2014,07,14,03,42,17.70
2014,07,14,03,43,17.70
2014,07,14,03,44,17.70
2014,07,14,03,45,17.70
2014,07,14,03,46,17.60
2014,07,14,03,47,17.60
2014,07,14,03,48,17.60
2014,07,14,03,49,17.50
2014,07,14,03,50,17.50
2014,07,14,03,51,17.50
2014,07,14,03,52,17.40
2014,07,14,03,53,17.40
2014,07,14,03,54,17.40
2014,07,14,03,55,17.40
2014,07,14,03,56,17.30
2014,07,14,03,57,17.30
2014,07,14,03,58,17.30
2014,07,14,03,59,17.30
2014,07,14,04,00,17.30
2014,07,14,04,01,17.30
2014,07,14,04,02,17.30
2014,07,14,04,03,17.30
2014,07,14,04,04,17.30
2014,07,14,04,05,17.20
2014,07,14,04,06,17.20
2014,07,14,04,07,17.20
2014,07,14,04,08,17.10
2014,07,14,04,09,17.10
2014,07,14,04,10,17.10
2014,07,14,04,11,17.00
2014,07,14,04,12,17.00
2014,07,14,04,13,16.90
2014,07,14,04,14,16.90
2014,07,14,04,15,16.80
2014,07,14,04,16,16.80
2014,07,14,04,17,16.70
2014,07,14,04,18,16.70
2014,07,14,04,19,16.70
2014,07,14,04,20,16.60
2014,07,14,04,21,16.60
2014,07,14,04,22,16.60
2014,07,14,04,23,16.60
2014,07,14,04,24,16.60
2014,07,14,04,25,16.60
2014,07,14,04,26,16.60
2014,07,14,04,27,16.60
2014,07,14,04,28,16.60
2014,07,14,04,29,16.60
2014,07,14,04,30,16.60
2014,07,14,04,31,16.60
2014,07,14,04,32,16.60
2014,07,14,04,33,16.70
2014,07,14,04,34,16.70
2014,07,14,04,35,16.70
2014,07,14,04,36,16.70
2014,07,14,04,37,16.70
2014,07,14,04,38,16.70
2014,07,14,04,39,16.60
2014,07,14,04,40,16.60
2014,07,14,04,41,16.50
2014,07,14,04,42,16.40
2014,07,14,04,43,16.40
2014,07,14,04,44,16.30
2014,07,14,04,45,16.20
2014,07,14,04,46,16.20
2014,07,14,04,47,16.10
2014,07,14,04,48,16.10
2014,07,14,04,49,15.90
2014,07,14,04,50,15.90
2014,07,14,04,51,15.80
2014,07,14,04,52,15.70
2014,07,14,04,53,15.60
2014,07,14,04,54,15.50
2014,07,14,04,55,15.40
2014,07,14,04,56,15.30
2014,07,14,04,57,15.30
2014,07,14,04,58,15.20
2014,07,14,04,59,15.10
2014,07,14,05,00,15.10
2014,07,14,05,01,15.00
2014,07,14,05,02,14.90
2014,07,14,05,03,14.90
2014,07,14,05,04,14.80
2014,07,14,05,05,14.80
2014,07,14,05,06,14.80
2014,07,14,05,07,14.80
2014,07,14,05,08,14.70
2014,07,14,05,09,14.70
2014,07,14,05,10,14.70
2014,07,14,05,11,14.70
2014,07,14,05,12,14.70
2014,07,14,05,13,14.70
2014,07,14,05,14,14.70
2014,07,14,05,15,14.70
2014,07,14,05,16,14.70
2014,07,14,05,17,14.70
2014,07,14,05,18,14.70
2014,07,14,05,19,14.70
2014,07,14,05,20,14.70
2014,07,14,05,21,14.70
2014,07,14,05,22,14.70
2014,07,14,05,23,14.70
2014,07,14,05,24,14.70
2014,07,14,05,25,14.70
2014,07,14,05,26,14.60
2014,07,14,05,27,14.60
2014,07,14,05,28,14.60
2014,07,14,05,29,14.60
2014,07,14,05,30,14.60
2014,07,14,05,31,14.60
2014,07,14,05,32,14.60
2014,07,14,05,33,14.60
2014,07,14,05,34,14.60
2014,07,14,05,35,14.60
2014,07,14,05,36,14.60
2014,07,14,05,37,14.60
2014,07,14,05,38,14.60
2014,07,14,05,39,14.60
2014,07,14,05,40,14.70
2014,07,14,05,41,14.70
2014,07,14,05,42,14.70
2014,07,14,05,43,14.70
2014,07,14,05,44,14.80
2014,07,14,05,45,14.80
2014,07,14,05,46,14.80
2014,07,14,05,47,14.80
2014,07,14,05,48,14.80
2014,07,14,05,49,14.80
2014,07,14,05,50,14.90
2014,07,14,05,51,14.90
2014,07,14,05,52,15.00
2014,07,14,05,53,15.00
2014,07,14,05,54,15.10
2014,07,14,05,55,15.10
2014,07,14,05,56,15.10
2014,07,14,05,57,15.20
2014,07,14,05,58,15.20
2014,07,14,05,59,15.30
2014,07,14,06,00,15.30
2014,07,14,06,01,15.30
2014,07,14,06,02,15.20
2014,07,14,06,03,15.10
2014,07,14,06,04,15.00
2014,07,14,06,05,14.90
2014,07,14,06,06,14.70
2014,07,14,06,07,14.60
2014,07,14,06,08,14.50
2014,07,14,06,09,14.50
2014,07,14,06,10,14.30
2014,07,14,06,11,14.20
2014,07,14,06,12,14.20
2014,07,14,06,13,14.10
2014,07,14,06,14,14.00
2014,07,14,06,15,13.90
2014,07,14,06,16,13.90
2014,07,14,06,17,13.90
2014,07,14,06,18,13.80
2014,07,14,06,19,13.80
2014,07,14,06,20,13.80
2014,07,14,06,21,13.80
2014,07,14,06,22,13.80
2014,07,14,06,23,13.70
2014,07,14,06,24,13.70
2014,07,14,06,25,13.70
2014,07,14,06,26,13.70
2014,07,14,06,27,13.80
2014,07,14,06,28,13.80
2014,07,14,06,29,13.90
2014,07,14,06,30,13.90
2014,07,14,06,31,14.00
2014,07,14,06,32,14.00
2014,07,14,06,33,14.10
2014,07,14,06,34,14.10
2014,07,14,06,35,14.20
2014,07,14,06,36,14.20
2014,07,14,06,37,14.20
2014,07,14,06,38,14.30
2014,07,14,06,39,14.30
2014,07,14,06,40,14.20
2014,07,14,06,41,14.20
2014,07,14,06,42,14.20
2014,07,14,06,43,14.30
2014,07,14,06,44,14.40
2014,07,14,06,45,14.50
2014,07,14,06,46,14.50
2014,07,14,06,47,14.60
2014,07,14,06,48,14.80
2014,07,14,06,49,14.90
2014,07,14,06,50,15.00
2014,07,14,06,51,15.10
2014,07,14,06,52,15.20
2014,07,14,06,53,15.30
2014,07,14,06,54,15.40
2014,07,14,06,55,15.50
2014,07,14,06,56,15.60
2014,07,14,06,57,15.70
2014,07,14,06,58,15.80
2014,07,14,06,59,15.80
2014,07,14,07,00,15.90
2014,07,14,07,01,16.00
2014,07,14,07,02,16.10
2014,07,14,07,03,16.20
2014,07,14,07,04,16.30
2014,07,14,07,05,16.40
2014,07,14,07,06,16.30
2014,07,14,07,07,16.30
2014,07,14,07,08,16.30
2014,07,14,07,09,16.30
2014,07,14,07,10,16.30
2014,07,14,07,11,16.30
2014,07,14,07,12,16.30
2014,07,14,07,13,16.40
2014,07,14,07,14,16.40
2014,07,14,07,15,16.40
2014,07,14,07,16,16.40
2014,07,14,07,17,16.40
2014,07,14,07,18,16.60
2014,07,14,07,19,16.60
2014,07,14,07,20,16.60
2014,07,14,07,21,16.60
2014,07,14,07,22,16.70
2014,07,14,07,23,16.80
2014,07,14,07,24,16.90
2014,07,14,07,25,17.00
2014,07,14,07,26,17.10
2014,07,14,07,27,17.30
2014,07,14,07,28,17.30
2014,07,14,07,29,17.30
2014,07,14,07,30,17.30
2014,07,14,07,31,17.30
2014,07,14,07,32,17.30
2014,07,14,07,33,17.40
2014,07,14,07,34,17.40
2014,07,14,07,35,17.50
2014,07,14,07,36,17.60
2014,07,14,07,37,17.70
2014,07,14,07,38,17.80
2014,07,14,07,39,17.90
2014,07,14,07,40,17.90
2014,07,14,07,41,17.90
2014,07,14,07,42,17.90
2014,07,14,07,43,18.00
2014,07,14,07,44,18.10
2014,07,14,07,45,18.20
2014,07,14,07,46,18.20
2014,07,14,07,47,18.30
2014,07,14,07,48,18.40
2014,07,14,07,49,18.50
2014,07,14,07,50,18.60
2014,07,14,07,51,18.70
2014,07,14,07,52,18.90
2014,07,14,07,53,18.90
2014,07,14,07,54,19.00
2014,07,14,07,55,19.10
2014,07,14,07,56,19.30
2014,07,14,07,57,19.30
2014,07,14,07,58,19.40
2014,07,14,07,59,19.50
2014,07,14,08,00,19.50
2014,07,14,08,01,19.40
2014,07,14,08,02,19.40
2014,07,14,08,03,19.30
2014,07,14,08,04,19.20
2014,07,14,08,05,19.10
2014,07,14,08,06,19.10
2014,07,14,08,07,19.10
2014,07,14,08,08,19.10
2014,07,14,08,09,19.10
2014,07,14,08,10,19.10
2014,07,14,08,11,19.10
2014,07,14,08,12,19.20
2014,07,14,08,13,19.20
2014,07,14,08,14,19.30
2014,07,14,08,15,19.20
2014,07,14,08,16,19.10
2014,07,14,08,17,19.10
2014,07,14,08,18,18.90
2014,07,14,08,19,18.90
2014,07,14,08,20,18.80
2014,07,14,08,21,18.80
2014,07,14,08,22,18.70
2014,07,14,08,23,18.60
2014,07,14,08,24,18.60
2014,07,14,08,25,18.60
2014,07,14,08,26,18.60
2014,07,14,08,27,18.60
2014,07,14,08,28,18.70
2014,07,14,08,29,18.70
2014,07,14,08,30,18.80
2014,07,14,08,31,18.90
2014,07,14,08,32,18.90
2014,07,14,08,33,18.90
2014,07,14,08,34,18.90
2014,07,14,08,35,19.00
2014,07,14,08,36,19.10
2014,07,14,08,37,19.10
2014,07,14,08,38,19.10
2014,07,14,08,39,19.20
2014,07,14,08,40,19.20
2014,07,14,08,41,19.10
2014,07,14,08,42,19.10
2014,07,14,08,43,19.10
2014,07,14,08,44,19.10
2014,07,14,08,45,19.10
2014,07,14,08,46,19.10
2014,07,14,08,47,19.10
2014,07,14,08,48,19.10
2014,07,14,08,49,19.10
2014,07,14,08,50,19.10
2014,07,14,08,51,19.10
2014,07,14,08,52,19.20
2014,07,14,08,53,19.30
2014,07,14,08,54,19.40
2014,07,14,08,55,19.40
2014,07,14,08,56,19.30
2014,07,14,08,57,19.30
2014,07,14,08,58,19.30
2014,07,14,08,59,19.40
2014,07,14,09,00,19.40
2014,07,14,09,01,19.40
2014,07,14,09,02,19.50
2014,07,14,09,03,19.60
2014,07,14,09,04,19.60
2014,07,14,09,05,19.70
2014,07,14,09,06,19.70
2014,07,14,09,07,19.70
2014,07,14,09,08,19.70
2014,07,14,09,09,19.70
2014,07,14,09,10,19.60
2014,07,14,09,11,19.60
2014,07,14,09,12,19.60
2014,07,14,09,13,19.60
2014,07,14,09,14,19.50
2014,07,14,09,15,19.40
2014,07,14,09,16,19.30
2014,07,14,09,17,19.30
2014,07,14,09,18,19.30
2014,07,14,09,19,19.40
2014,07,14,09,20,19.50
2014,07,14,09,21,19.60
2014,07,14,09,22,19.60
2014,07,14,09,23,19.60
2014,07,14,09,24,19.40
2014,07,14,09,25,19.00
2014,07,14,09,26,18.70
2014,07,14,09,27,18.60
2014,07,14,09,28,18.40
2014,07,14,09,29,18.30
2014,07,14,09,30,18.10
2014,07,14,09,31,18.00
2014,07,14,09,32,17.80
2014,07,14,09,33,17.70
2014,07,14,09,34,17.70
2014,07,14,09,35,17.50
2014,07,14,09,36,17.40
2014,07,14,09,37,17.30
2014,07,14,09,38,17.30
2014,07,14,09,39,17.30
2014,07,14,09,40,17.30
2014,07,14,09,41,17.30
2014,07,14,09,42,17.30
2014,07,14,09,43,17.30
2014,07,14,09,44,17.30
2014,07,14,09,45,17.30
2014,07,14,09,46,17.40
2014,07,14,09,47,17.50
2014,07,14,09,48,17.50
2014,07,14,09,49,17.60
2014,07,14,09,50,17.60
2014,07,14,09,51,17.60
2014,07,14,09,52,17.70
2014,07,14,09,53,17.80
2014,07,14,09,54,17.80
2014,07,14,09,55,17.90
2014,07,14,09,56,17.90
2014,07,14,09,57,17.90
2014,07,14,09,58,17.90
2014,07,14,09,59,17.90
2014,07,14,10,00,17.90
2014,07,14,10,01,17.80
2014,07,14,10,02,17.80
2014,07,14,10,03,17.80
2014,07,14,10,04,17.90
2014,07,14,10,05,17.90
2014,07,14,10,06,18.00
2014,07,14,10,07,18.10
2014,07,14,10,08,18.20
2014,07,14,10,09,18.20
2014,07,14,10,10,18.20
2014,07,14,10,11,18.20
2014,07,14,10,12,18.20
2014,07,14,10,13,18.30
2014,07,14,10,14,18.50
2014,07,14,10,15,18.60
2014,07,14,10,16,18.70
2014,07,14,10,17,18.90
2014,07,14,10,18,18.90
2014,07,14,10,19,18.90
2014,07,14,10,20,19.00
2014,07,14,10,21,19.10
2014,07,14,10,22,19.10
2014,07,14,10,23,19.30
2014,07,14,10,24,19.40
2014,07,14,10,25,19.50
2014,07,14,10,26,19.70
2014,07,14,10,27,19.80
2014,07,14,10,28,20.00
2014,07,14,10,29,20.10
2014,07,14,10,30,20.20
2014,07,14,10,31,20.10
2014,07,14,10,32,20.10
2014,07,14,10,33,20.10
2014,07,14,10,34,20.20
2014,07,14,10,35,20.20
2014,07,14,10,36,20.20
2014,07,14,10,37,20.30
2014,07,14,10,38,20.40
2014,07,14,10,39,20.50
2014,07,14,10,40,20.70
2014,07,14,10,41,20.80
2014,07,14,10,42,21.00
2014,07,14,10,43,21.10
2014,07,14,10,44,21.20
2014,07,14,10,45,21.30
2014,07,14,10,46,21.40
2014,07,14,10,47,21.40
2014,07,14,10,48,21.60
2014,07,14,10,49,21.60
2014,07,14,10,50,21.70
2014,07,14,10,51,21.60
2014,07,14,10,52,21.50
2014,07,14,10,53,21.40
2014,07,14,10,54,21.30
2014,07,14,10,55,21.20
2014,07,14,10,56,21.00
2014,07,14,10,57,21.00
2014,07,14,10,58,21.00
2014,07,14,10,59,21.00
2014,07,14,11,00,21.10
2014,07,14,11,01,21.10
2014,07,14,11,02,21.20
2014,07,14,11,03,21.10
2014,07,14,11,04,21.10
2014,07,14,11,05,21.10
2014,07,14,11,06,21.10
2014,07,14,11,07,21.20
2014,07,14,11,08,21.30
2014,07,14,11,09,21.40
2014,07,14,11,10,21.60
2014,07,14,11,11,21.60
2014,07,14,11,12,21.60
2014,07,14,11,13,21.60
2014,07,14,11,14,21.60
2014,07,14,11,15,21.40
2014,07,14,11,16,21.30
2014,07,14,11,17,21.20
2014,07,14,11,18,21.20
2014,07,14,11,19,21.10
2014,07,14,11,20,21.10
2014,07,14,11,21,21.10
2014,07,14,11,22,21.10
2014,07,14,11,23,21.30
2014,07,14,11,24,21.50
2014,07,14,11,25,21.60
2014,07,14,11,26,21.70
2014,07,14,11,27,21.80
2014,07,14,11,28,21.90
2014,07,14,11,29,22.00
2014,07,14,11,30,22.10
2014,07,14,11,31,22.10
2014,07,14,11,32,22.00
2014,07,14,11,33,22.10
2014,07,14,11,34,22.10
2014,07,14,11,35,22.10
2014,07,14,11,36,22.00
2014,07,14,11,37,21.90
2014,07,14,11,38,21.80
2014,07,14,11,39,21.90
2014,07,14,11,40,22.00
2014,07,14,11,41,22.10
2014,07,14,11,42,22.10
2014,07,14,11,43,22.10
2014,07,14,11,44,22.10
2014,07,14,11,45,22.20
2014,07,14,11,46,22.10
2014,07,14,11,47,22.00
2014,07,14,11,48,21.90
2014,07,14,11,49,21.70
2014,07,14,11,50,21.60
2014,07,14,11,51,21.50
2014,07,14,11,52,21.40
2014,07,14,11,53,21.30
2014,07,14,11,54,21.30
2014,07,14,11,55,21.30
2014,07,14,11,56,21.20
2014,07,14,11,57,21.20
2014,07,14,11,58,21.10
2014,07,14,11,59,21.10
2014,07,14,12,00,21.10
2014,07,14,12,01,20.90
2014,07,14,12,02,20.70
2014,07,14,12,03,20.50
2014,07,14,12,04,20.50
2014,07,14,12,05,20.50
2014,07,14,12,06,20.40
2014,07,14,12,07,20.40
2014,07,14,12,08,20.50
2014,07,14,12,09,20.50
2014,07,14,12,10,20.50
2014,07,14,12,11,20.60
2014,07,14,12,12,20.70
2014,07,14,12,13,20.80
2014,07,14,12,14,21.00
2014,07,14,12,15,21.10
2014,07,14,12,16,21.20
2014,07,14,12,17,21.30
2014,07,14,12,18,21.30
2014,07,14,12,19,21.30
2014,07,14,12,20,21.30
2014,07,14,12,21,21.30
2014,07,14,12,22,21.30
2014,07,14,12,23,21.40
2014,07,14,12,24,21.50
2014,07,14,12,25,21.60
2014,07,14,12,26,21.60
2014,07,14,12,27,21.70
2014,07,14,12,28,21.70
2014,07,14,12,29,21.70
2014,07,14,12,30,21.60
2014,07,14,12,31,21.70
2014,07,14,12,32,21.70
2014,07,14,12,33,21.70
2014,07,14,12,34,21.70
2014,07,14,12,35,21.80
2014,07,14,12,36,21.80
2014,07,14,12,37,21.80
2014,07,14,12,38,21.80
2014,07,14,12,39,21.90
2014,07,14,12,40,22.00
2014,07,14,12,41,22.00
2014,07,14,12,42,22.00
2014,07,14,12,43,21.90
2014,07,14,12,44,21.90
2014,07,14,12,45,21.90
2014,07,14,12,46,22.00
2014,07,14,12,47,22.00
2014,07,14,12,48,22.00
2014,07,14,12,49,21.90
2014,07,14,12,50,21.80
2014,07,14,12,51,21.70
2014,07,14,12,52,21.70
2014,07,14,12,53,21.80
2014,07,14,12,54,21.90
2014,07,14,12,55,22.00
2014,07,14,12,56,22.00
2014,07,14,12,57,22.20
2014,07,14,12,58,22.30
2014,07,14,12,59,22.30
2014,07,14,13,00,22.50
2014,07,14,13,01,22.50
2014,07,14,13,02,22.60
2014,07,14,13,03,22.60
2014,07,14,13,04,22.70
2014,07,14,13,05,22.70
2014,07,14,13,06,22.70
2014,07,14,13,07,22.70
2014,07,14,13,08,22.80
2014,07,14,13,09,22.80
2014,07,14,13,10,22.80
2014,07,14,13,11,22.90
2014,07,14,13,12,22.90
2014,07,14,13,13,22.90
2014,07,14,13,14,22.90
2014,07,14,13,15,22.90
2014,07,14,13,16,22.90
2014,07,14,13,17,22.90
2014,07,14,13,18,22.90
2014,07,14,13,19,22.90
2014,07,14,13,20,22.90
2014,07,14,13,21,22.90
2014,07,14,13,22,22.90
2014,07,14,13,23,22.90
2014,07,14,13,24,22.90
2014,07,14,13,25,22.90
2014,07,14,13,26,23.00
2014,07,14,13,27,23.10
2014,07,14,13,28,23.10
2014,07,14,13,29,23.10
2014,07,14,13,30,23.20
2014,07,14,13,31,23.10
2014,07,14,13,32,23.10
2014,07,14,13,33,23.10
2014,07,14,13,34,22.90
2014,07,14,13,35,22.90
2014,07,14,13,36,22.90
2014,07,14,13,37,22.90
2014,07,14,13,38,22.90
2014,07,14,13,39,23.00
2014,07,14,13,40,23.10
2014,07,14,13,41,23.10
2014,07,14,13,42,23.10
2014,07,14,13,43,22.90
2014,07,14,13,44,22.90
2014,07,14,13,45,22.90
2014,07,14,13,46,22.90
2014,07,14,13,47,23.00
2014,07,14,13,48,23.10
2014,07,14,13,49,23.30
2014,07,14,13,50,23.30
2014,07,14,13,51,23.30
2014,07,14,13,52,23.30
2014,07,14,13,53,23.50
2014,07,14,13,54,23.60
2014,07,14,13,55,23.70
2014,07,14,13,56,23.70
2014,07,14,13,57,23.70
2014,07,14,13,58,23.70
2014,07,14,13,59,23.70
2014,07,14,14,00,23.70
2014,07,14,14,01,23.70
2014,07,14,14,02,23.60
2014,07,14,14,03,23.60
2014,07,14,14,04,23.50
2014,07,14,14,05,23.40
2014,07,14,14,06,23.30
2014,07,14,14,07,23.30
2014,07,14,14,08,23.40
2014,07,14,14,09,23.50
2014,07,14,14,10,23.50
2014,07,14,14,11,23.40
2014,07,14,14,12,23.30
2014,07,14,14,13,23.40
2014,07,14,14,14,23.40
2014,07,14,14,15,23.40
2014,07,14,14,16,23.40
2014,07,14,14,17,23.30
2014,07,14,14,18,23.30
2014,07,14,14,19,23.30
2014,07,14,14,20,23.30
2014,07,14,14,21,23.30
2014,07,14,14,22,23.40
2014,07,14,14,23,23.50
2014,07,14,14,24,23.60
2014,07,14,14,25,23.60
2014,07,14,14,26,23.60
2014,07,14,14,27,23.60
2014,07,14,14,28,23.50
2014,07,14,14,29,23.40
2014,07,14,14,30,23.40
2014,07,14,14,31,23.40
2014,07,14,14,32,23.60
2014,07,14,14,33,23.50
2014,07,14,14,34,23.50
2014,07,14,14,35,23.70
2014,07,14,14,36,23.90
2014,07,14,14,37,24.00
2014,07,14,14,38,24.10
2014,07,14,14,39,24.10
2014,07,14,14,40,23.90
2014,07,14,14,41,23.80
2014,07,14,14,42,23.70
2014,07,14,14,43,23.70
2014,07,14,14,44,23.70
2014,07,14,14,45,23.70
2014,07,14,14,46,23.70
2014,07,14,14,47,23.70
2014,07,14,14,48,23.60
2014,07,14,14,49,23.60
2014,07,14,14,50,23.40
2014,07,14,14,51,23.30
2014,07,14,14,52,23.20
2014,07,14,14,53,23.10
2014,07,14,14,54,23.10
2014,07,14,14,55,23.10
2014,07,14,14,56,23.10
2014,07,14,14,57,23.20
2014,07,14,14,58,23.20
2014,07,14,14,59,23.20
2014,07,14,15,00,23.10
2014,07,14,15,01,23.00
2014,07,14,15,02,22.90
2014,07,14,15,03,22.90
2014,07,14,15,04,22.90
2014,07,14,15,05,22.90
2014,07,14,15,06,22.90
2014,07,14,15,07,22.90
2014,07,14,15,08,22.80
2014,07,14,15,09,22.90
2014,07,14,15,10,22.90
2014,07,14,15,11,22.90
2014,07,14,15,12,22.90
2014,07,14,15,13,22.90
2014,07,14,15,14,22.80
2014,07,14,15,15,22.80
2014,07,14,15,16,22.80
2014,07,14,15,17,22.80
2014,07,14,15,18,22.80
2014,07,14,15,19,22.70
2014,07,14,15,20,22.70
2014,07,14,15,21,22.70
2014,07,14,15,22,22.70
2014,07,14,15,23,22.60
2014,07,14,15,24,22.50
2014,07,14,15,25,22.40
2014,07,14,15,26,22.30
2014,07,14,15,27,22.20
2014,07,14,15,28,22.20
2014,07,14,15,29,22.10
2014,07,14,15,30,22.10
2014,07,14,15,31,22.00
2014,07,14,15,32,22.00
2014,07,14,15,33,22.00
2014,07,14,15,34,22.10
2014,07,14,15,35,22.10
2014,07,14,15,36,22.10
2014,07,14,15,37,22.10
2014,07,14,15,38,22.00
2014,07,14,15,39,21.90
2014,07,14,15,40,21.70
2014,07,14,15,41,21.60
2014,07,14,15,42,21.60
2014,07,14,15,43,21.60
2014,07,14,15,44,21.70
2014,07,14,15,45,21.80
2014,07,14,15,46,21.90
2014,07,14,15,47,21.90
2014,07,14,15,48,21.90
2014,07,14,15,49,22.00
2014,07,14,15,50,22.10
2014,07,14,15,51,22.30
2014,07,14,15,52,22.50
2014,07,14,15,53,22.80
2014,07,14,15,54,23.10
2014,07,14,15,55,23.40
2014,07,14,15,56,23.80
2014,07,14,15,57,24.10
2014,07,14,15,58,24.40
2014,07,14,15,59,24.70
2014,07,14,16,00,24.90
2014,07,14,16,01,25.00
2014,07,14,16,02,25.10
2014,07,14,16,03,25.00
2014,07,14,16,04,25.00
2014,07,14,16,05,25.00
2014,07,14,16,06,25.00
2014,07,14,16,07,25.00
2014,07,14,16,08,25.00
2014,07,14,16,09,25.00
2014,07,14,16,10,25.00
2014,07,14,16,11,25.00
2014,07,14,16,12,25.10
2014,07,14,16,13,25.20
2014,07,14,16,14,25.40
2014,07,14,16,15,25.50
2014,07,14,16,16,25.70
2014,07,14,16,17,25.90
2014,07,14,16,18,26.00
2014,07,14,16,19,26.10
2014,07,14,16,20,26.10
2014,07,14,16,21,26.20
2014,07,14,16,22,26.20
2014,07,14,16,23,25.90
2014,07,14,16,24,25.70
2014,07,14,16,25,25.40
2014,07,14,16,26,25.20
2014,07,14,16,27,25.00
2014,07,14,16,28,24.80
2014,07,14,16,29,24.70
2014,07,14,16,30,24.40
2014,07,14,16,31,24.20
2014,07,14,16,32,23.90
2014,07,14,16,33,23.70
2014,07,14,16,34,23.60
2014,07,14,16,35,23.50
2014,07,14,16,36,23.40
2014,07,14,16,37,23.40
2014,07,14,16,38,23.30
2014,07,14,16,39,23.30
2014,07,14,16,40,23.20
2014,07,14,16,41,23.10
2014,07,14,16,42,23.10
2014,07,14,16,43,23.20
2014,07,14,16,44,23.30
2014,07,14,16,45,23.30
2014,07,14,16,46,23.30
2014,07,14,16,47,23.30
2014,07,14,16,48,23.30
2014,07,14,16,49,23.30
2014,07,14,16,50,23.30
2014,07,14,16,51,23.10
2014,07,14,16,52,22.90
2014,07,14,16,53,22.80
2014,07,14,16,54,22.70
2014,07,14,16,55,22.50
2014,07,14,16,56,22.20
2014,07,14,16,57,22.10
2014,07,14,16,58,22.20
2014,07,14,16,59,22.30
2014,07,14,17,00,22.30
2014,07,14,17,01,22.20
2014,07,14,17,02,22.10
2014,07,14,17,03,22.00
2014,07,14,17,04,22.00
2014,07,14,17,05,22.00
2014,07,14,17,06,22.10
2014,07,14,17,07,22.10
2014,07,14,17,08,22.10
2014,07,14,17,09,22.10
2014,07,14,17,10,22.20
2014,07,14,17,11,22.20
2014,07,14,17,12,22.30
2014,07,14,17,13,22.40
2014,07,14,17,14,22.60
2014,07,14,17,15,22.80
2014,07,14,17,16,23.00
2014,07,14,17,17,23.30
2014,07,14,17,18,23.50
2014,07,14,17,19,23.80